Location: Praha
(50.0830°N, 14.4670°E)
Time: 18:52:54
(UTC+02:00)

ISS - Pass Details

Date: 23 May 2021
Orbit: 417 x 422 km, 51.6° (Epoch: 16 June)

Event Time Altitude Azimuth Distance (km) Brightness Sun altitude
Rises 22:10:00 0° 279° (W) 2,366 0.9 -9.9°
Reaches altitude 10° 22:12:06 10° 282° (WNW) 1,502 -0.1 -10.2°
Maximum altitude 22:15:28 67° 5° (N) 459 -3.4 -10.5°
Drops below altitude 10° 22:18:50 10° 89° (E) 1,504 -1.3 -10.8°
Enters shadow 22:19:30 - 91° (E) 1,780 -0.9 -10.9°
